| time (UTC) | temp C | wind direction | speed KPH | gust KPH | rain 1hr cm | rain 24hr cm | rain mn cm | humidity % | barometer mb |
| 20260504002219 | 25 | 338 | 9.7 | 17.7 | 0.00 | 0.00 | 0.00 | 42 | 1011.4 |
| 20260504001219 | 24 | 338 | 6.4 | 9.7 | 0.00 | 0.00 | 0.00 | 43 | 1011.4 |
| 20260504000219 | 25 | 315 | 12.9 | 17.7 | 0.00 | 0.00 | 0.00 | 43 | 1011.5 |
| 20260503235219 | 25 | 293 | 6.4 | 11.3 | 0.00 | 0.00 | 0.00 | 45 | 1011.7 |
| 20260503234220 | 24 | 270 | 6.4 | 9.7 | 0.00 | 0.00 | 0.00 | 46 | 1011.7 |
| 20260503233220 | 24 | 293 | 6.4 | 12.9 | 0.00 | 0.00 | 0.00 | 46 | 1011.7 |
| 20260503232221 | 24 | 315 | 8.0 | 12.9 | 0.00 | 0.00 | 0.00 | 47 | 1011.8 |
| 20260503231219 | 24 | 315 | 12.9 | 16.1 | 0.00 | 0.00 | 0.00 | 46 | 1012.0 |
| 20260503230218 | 24 | 293 | 12.9 | 16.1 | 0.00 | 0.00 | 0.00 | 46 | 1012.1 |
| 20260503225220 | 25 | 315 | 14.5 | 20.9 | 0.00 | 0.00 | 0.00 | 44 | 1012.3 |
| 20260503224219 | 25 | 315 | 14.5 | 19.3 | 0.00 | 0.00 | 0.00 | 44 | 1012.5 |
| 20260503223221 | 24 | 293 | 8.0 | 11.3 | 0.00 | 0.00 | 0.00 | 46 | 1012.7 |
| 20260503222221 | 24 | 270 | 4.8 | 9.7 | 0.00 | 0.00 | 0.00 | 48 | 1012.8 |
| 20260503221218 | 23 | 0 | 9.7 | 14.5 | 0.00 | 0.00 | 0.00 | 46 | 1012.9 |
| 20260503220218 | 23 | 315 | 11.3 | 20.9 | 0.00 | 0.00 | 0.00 | 46 | 1013.0 |
| 20260503215218 | 23 | 315 | 14.5 | 20.9 | 0.00 | 0.00 | 0.00 | 47 | 1013.1 |
| 20260503214220 | 24 | 293 | 9.7 | 17.7 | 0.00 | 0.00 | 0.00 | 49 | 1013.1 |
| 20260503213239 | 23 | 270 | 12.9 | 20.9 | 0.00 | 0.00 | 0.00 | 50 | 1013.2 |
| 20260503212219 | 23 | 293 | 16.1 | 19.3 | 0.00 | 0.00 | 0.00 | 50 | 1013.3 |
| 20260503211220 | 23 | 315 | 9.7 | 16.1 | 0.00 | 0.00 | 0.00 | 49 | 1013.4 |
| 20260503210220 | 24 | 270 | 9.7 | 14.5 | 0.00 | 0.00 | 0.00 | 48 | 1013.4 |
| 20260503205220 | 23 | 315 | 8.0 | 14.5 | 0.00 | 0.00 | 0.00 | 49 | 1013.4 |
| 20260503204301 | 23 | 293 | 11.3 | 16.1 | 0.00 | 0.00 | 0.00 | 50 | 1013.6 |
| 20260503203218 | 22 | 315 | 12.9 | 20.9 | 0.00 | 0.00 | 0.00 | 47 | 1013.7 |
| 20260503202240 | 22 | 315 | 14.5 | 19.3 | 0.00 | 0.00 | 0.00 | 46 | 1013.8 |
| 20260503201218 | 22 | 315 | 17.7 | 25.7 | 0.00 | 0.00 | 0.00 | 45 | 1014.0 |
| 20260503200220 | 22 | 293 | 14.5 | 22.5 | 0.00 | 0.00 | 0.00 | 46 | 1014.2 |
| 20260503195220 | 22 | 293 | 8.0 | 12.9 | 0.00 | 0.00 | 0.00 | 49 | 1014.3 |
| 20260503194218 | 22 | 315 | 11.3 | 14.5 | 0.00 | 0.00 | 0.00 | 53 | 1014.3 |
| 20260503193218 | 22 | 315 | 11.3 | 16.1 | 0.00 | 0.00 | 0.00 | 53 | 1014.6 |
| 20260503192220 | 22 | 270 | 8.0 | 14.5 | 0.00 | 0.00 | 0.00 | 55 | 1014.5 |
| 20260503191301 | 22 | 293 | 12.9 | 17.7 | 0.00 | 0.00 | 0.00 | 54 | 1014.6 |
| 20260503190218 | 22 | 293 | 8.0 | 11.3 | 0.00 | 0.00 | 0.00 | 57 | 1014.8 |
| 20260503185220 | 22 | 293 | 4.8 | 14.5 | 0.00 | 0.00 | 0.00 | 55 | 1014.9 |
| 20260503184220 | 23 | 0 | 6.4 | 14.5 | 0.00 | 0.00 | 0.00 | 56 | 1014.9 |
| 20260503183220 | 22 | 338 | 9.7 | 14.5 | 0.00 | 0.00 | 0.00 | 57 | 1015.1 |
| 20260503182220 | 21 | 293 | 8.0 | 12.9 | 0.00 | 0.00 | 0.00 | 58 | 1015.2 |
| 20260503181218 | 22 | 270 | 9.7 | 14.5 | 0.00 | 0.00 | 0.00 | 56 | 1015.2 |
| 20260503180220 | 21 | 293 | 9.7 | 16.1 | 0.00 | 0.00 | 0.00 | 59 | 1015.1 |
| 20260503175220 | 21 | 293 | 11.3 | 14.5 | 0.00 | 0.00 | 0.00 | 58 | 1015.3 |
| 20260503174220 | 22 | 0 | 6.4 | 9.7 | 0.00 | 0.00 | 0.00 | 55 | 1015.4 |
| 20260503173220 | 22 | 293 | 6.4 | 11.3 | 0.00 | 0.00 | 0.00 | 58 | 1015.4 |
| 20260503172220 | 20 | 270 | 9.7 | 14.5 | 0.00 | 0.00 | 0.00 | 60 | 1015.4 |
| 20260503171219 | 21 | 338 | 3.2 | 4.8 | 0.00 | 0.00 | 0.00 | 57 | 1015.4 |
| 20260503170219 | 20 | 338 | 6.4 | 9.7 | 0.00 | 0.00 | 0.00 | 60 | 1015.4 |
| 20260503150240 | 16 | 23 | 8.0 | 12.9 | 0.00 | 0.00 | 0.00 | 68 | 1015.5 |
| 20260503140219 | 15 | 23 | 4.8 | 6.4 | 0.00 | 0.00 | 0.00 | 66 | 1015.3 |
| 20260503131220 | 13 | 23 | 3.2 | 4.8 | 0.00 | 0.00 | 0.00 | 72 | 1015.1 |
| 20260503130220 | 13 | 45 | 3.2 | 3.2 | 0.00 | 0.00 | 0.00 | 74 | 1015.2 |
| 20260503120219 | 12 | 45 | 1.6 | 3.2 | 0.00 | 0.00 | 0.00 | 75 | 1015.3 |
| 20260503110220 | 13 | 0.0 | 1.6 | 0.00 | 0.00 | 0.00 | 69 | 1015.7 | |
| 20260503100225 | 13 | 68 | 3.2 | 4.8 | 0.00 | 0.00 | 0.00 | 68 | 1015.7 |
| 20260503090220 | 15 | 68 | 1.6 | 3.2 | 0.00 | 0.00 | 0.00 | 63 | 1015.7 |
| 20260503081218 | 15 | 68 | 3.2 | 6.4 | 0.00 | 0.00 | 0.00 | 62 | 1015.6 |
| 20260503080220 | 15 | 68 | 3.2 | 4.8 | 0.00 | 0.00 | 0.00 | 62 | 1015.6 |
| 20260503072219 | 16 | 45 | 1.6 | 3.2 | 0.00 | 0.00 | 0.00 | 58 | 1015.6 |
| 20260503071259 | 17 | 0.0 | 0.0 | 0.00 | 0.00 | 0.00 | 56 | 1015.4 | |
| 20260503070219 | 17 | 45 | 3.2 | 4.8 | 0.00 | 0.00 | 0.00 | 55 | 1015.4 |
| 20260503060218 | 17 | 45 | 1.6 | 3.2 | 0.00 | 0.00 | 0.00 | 55 | 1015.5 |
| 20260503054221 | 17 | 68 | 3.2 | 3.2 | 0.00 | 0.00 | 0.00 | 57 | 1015.4 |
| 20260503053221 | 17 | 68 | 3.2 | 4.8 | 0.00 | 0.00 | 0.00 | 57 | 1015.4 |
| 20260503052219 | 17 | 68 | 1.6 | 3.2 | 0.00 | 0.00 | 0.00 | 57 | 1015.5 |
| 20260503051218 | 17 | 68 | 1.6 | 4.8 | 0.00 | 0.00 | 0.00 | 56 | 1015.4 |
| 20260503050218 | 18 | 68 | 1.6 | 3.2 | 0.00 | 0.00 | 0.00 | 55 | 1015.5 |
| 20260503045219 | 18 | 0.0 | 1.6 | 0.00 | 0.00 | 0.00 | 54 | 1015.4 | |
| 20260503044218 | 18 | 68 | 1.6 | 3.2 | 0.00 | 0.00 | 0.00 | 53 | 1015.3 |
| 20260503043238 | 18 | 68 | 1.6 | 3.2 | 0.00 | 0.00 | 0.00 | 53 | 1015.2 |
| 20260503042218 | 18 | 0.0 | 0.0 | 0.00 | 0.00 | 0.00 | 53 | 1015.0 | |
| 20260503041218 | 18 | 0 | 6.4 | 12.9 | 0.00 | 0.00 | 0.00 | 52 | 1014.9 |
| 20260503040219 | 18 | 23 | 6.4 | 12.9 | 0.00 | 0.00 | 0.00 | 53 | 1014.8 |
| 20260503035220 | 18 | 338 | 6.4 | 9.7 | 0.00 | 0.00 | 0.00 | 53 | 1014.7 |
| 20260503034220 | 18 | 23 | 3.2 | 4.8 | 0.00 | 0.00 | 0.00 | 53 | 1014.8 |
| 20260503033219 | 19 | 0 | 3.2 | 6.4 | 0.00 | 0.00 | 0.00 | 53 | 1014.5 |
| 20260503032220 | 19 | 338 | 4.8 | 9.7 | 0.00 | 0.00 | 0.00 | 53 | 1014.5 |
| 20260503031220 | 20 | 0 | 4.8 | 8.0 | 0.00 | 0.00 | 0.00 | 53 | 1014.3 |
| 20260503030220 | 20 | 0 | 3.2 | 6.4 | 0.00 | 0.00 | 0.00 | 53 | 1014.3 |
| 20260503025218 | 20 | 23 | 4.8 | 6.4 | 0.00 | 0.00 | 0.00 | 53 | 1014.3 |
| 20260503024218 | 20 | 0 | 3.2 | 4.8 | 0.00 | 0.00 | 0.00 | 53 | 1014.2 |
| 20260503023219 | 21 | 23 | 3.2 | 6.4 | 0.00 | 0.00 | 0.00 | 54 | 1014.2 |
| 20260503022220 | 21 | 0 | 8.0 | 12.9 | 0.00 | 0.00 | 0.00 | 55 | 1014.1 |
| 20260503021219 | 20 | 338 | 6.4 | 14.5 | 0.00 | 0.00 | 0.00 | 55 | 1014.3 |
| 20260503020220 | 20 | 315 | 9.7 | 14.5 | 0.00 | 0.00 | 0.00 | 55 | 1014.4 |
| 20260503015239 | 21 | 338 | 9.7 | 14.5 | 0.00 | 0.00 | 0.00 | 55 | 1014.4 |
| 20260503014219 | 21 | 338 | 11.3 | 17.7 | 0.00 | 0.00 | 0.00 | 55 | 1014.5 |
| 20260503013240 | 21 | 0 | 8.0 | 12.9 | 0.00 | 0.00 | 0.00 | 54 | 1014.6 |
| 20260503012220 | 21 | 0 | 8.0 | 16.1 | 0.00 | 0.00 | 0.00 | 55 | 1014.6 |
| 20260503011218 | 21 | 0 | 11.3 | 17.7 | 0.00 | 0.00 | 0.00 | 54 | 1014.6 |
| 20260503010220 | 21 | 23 | 11.3 | 17.7 | 0.00 | 0.00 | 0.00 | 54 | 1014.6 |
| 20260503005300 | 21 | 338 | 8.0 | 12.9 | 0.00 | 0.00 | 0.00 | 55 | 1014.6 |
| 20260503004219 | 21 | 0 | 11.3 | 16.1 | 0.00 | 0.00 | 0.00 | 55 | 1014.7 |
| 20260503003218 | 22 | 0 | 11.3 | 19.3 | 0.00 | 0.00 | 0.00 | 55 | 1014.6 |